Effective Sunday, March 17, 2024, the National Weather Service National Data Buoy Center will discontinue its Dial-A-Buoy Interactive Voice Response system. For more information, see Service Change Notice 24-06 (PDF).

Station CLKN7 - Cape Lookout, NC Image indicating link to RSS feed of recent meteorological observations for station CLKN7


Conditions at CLKN7 as of
(5:00 am EST)
1000 GMT on 02/25/2024:
     

Click on the graph icon in the table below to see a time series plot of the last five days of that observation.

5-day plot - Wind Direction Wind Direction (WDIR): N ( 350 deg true )
5-day plot - Wind Speed Wind Speed (WSPD): 14 kts
5-day plot - Wind Gust Wind Gust (GST): 17 kts
5-day plot - Atmospheric Pressure Atmospheric Pressure (PRES):30.06 in
5-day plot - Pressure Tendency Pressure Tendency (PTDY):+0.06 in ( Rising )
5-day plot - Air Temperature Air Temperature (ATMP): 44.2 °F
5-day plot - Wind Chill Wind Chill (CHILL): 37.0 °F
5-day plot - Wind Speed at 10 Meters Wind Speed at 10 meters (WSPD10M): 14 kts
5-day plot - Wind Speed at 20 Meters Wind Speed at 20 meters (WSPD20M): 16 kts
5-day plot -  Wind Speed, Wind Gust and Atmospheric Pressure Combined plot of Wind Speed, Gust, and Air Pressure
Continuous Winds
TIME
(EST)
5-day plot - Wind Direction WDIR 5-day plot - Wind Speed WSPD
5:00 amN ( 350 deg ) 13 kts
4:50 amN ( 352 deg ) 14 kts
4:40 amN ( 352 deg ) 15 kts
4:30 amN ( 352 deg ) 14 kts
4:20 amNNW ( 348 deg ) 14 kts
4:10 amNNW ( 345 deg ) 13 kts
 
Peak gust during the measurement hour
TIME
(EST)
5-day plot - Gust Direction GDR 5-day plot - Gust Speed GST
4:37 amN ( 350 deg ) 18 kts
Previous observations
TIME
(EST)
5-day plot - Wind Direction
WDIR
 
5-day plot - Wind Speed
WSPD
kts
5-day plot - Wind Gust
GST
kts
5-day plot - Wave Height
WVHT
ft
5-day plot - Dominant Wave Period
DPD
sec
5-day plot - Average Wave Period
APD
sec
5-day plot - Mean Wave Direction
MWD
 
5-day plot - Atmospheric Pressure
PRES
in
5-day plot - Pressure Tendency
PTDY
in
5-day plot - Air Temperature
ATMP
°F
5-day plot - Water Temperature
WTMP
°F
5-day plot - Dew Point
DEWP
°F
5-day plot - Salinity
SAL
psu
5-day plot - Visibility
VIS
nmi
5-day plot - Tide (above MLLW)
TIDE
ft
2024-02-25 04:00 amNNW 13 16----30.03+0.05 45.5-----
2024-02-25 03:00 amNNW 10 11----30.01+0.04 46.9-----
2024-02-25 02:00 amNNW 7 8----30.00+0.04 47.7-----
2024-02-25 01:00 am N 6 7----29.98+0.05 47.8-----
2024-02-25 12:00 amNNW 8 9----29.97+0.06 48.0-----
2024-02-24 11:00 pmNNE 7 8----29.96+0.08 48.2-----
2024-02-24 10:00 pm NE 10 11----29.94+0.11 49.3-----
2024-02-24 09:00 pm NE 12 14----29.91+0.11 49.6-----
2024-02-24 08:00 pm N 11 13----29.88+0.11 53.8-----
2024-02-24 07:00 pm NW 11 14----29.83+0.09 54.7-----
2024-02-24 06:00 pm W 9 10----29.80+0.09 53.6-----
2024-02-24 05:00 pmWSW 7 11----29.77+0.06 54.5-----
2024-02-24 04:00 pm SW 8 12----29.74+0.02 55.2-----
2024-02-24 03:00 pm SW 7 9----29.72-0.02 57.6-----
2024-02-24 02:00 pmWSW 6 9----29.71-0.04 56.3-----
2024-02-24 01:00 pmWSW 6 8----29.72-0.05 57.2-----
2024-02-24 12:00 pmWNW 7 8----29.73-0.04 56.1-----
2024-02-24 11:00 amNNW 7 8----29.75+0.00 54.1-----
2024-02-24 10:00 amWNW 9 10----29.77+0.04 52.0-----
2024-02-24 09:00 am W 11 13----29.77+0.07 52.2-----
2024-02-24 08:00 am W 9 13----29.75+0.06 50.7-----
2024-02-24 07:00 am W 10 13----29.72+0.05 50.5-----
2024-02-24 06:00 am W 8 9----29.70+0.04 49.6-----
2024-02-24 05:00 amWSW 3 5----29.69+0.03 49.5-----